Location: Équennes
(49.7375°N, 1.9622°E)
Time: 22:40:58
(UTC+00:00)

Cosmos 1536 Rocket - Pass Details

Date: 28 January 2023
Orbit: 604 x 630 km, 82.5° (Epoch: 28 March)

Event Time Altitude Azimuth Distance (km) Brightness Sun altitude
Rises 18:14:22 0° 180° (S) 2,847 7.1 -15.2°
Reaches altitude 10° 18:16:35 10° 177° (S) 1,948 6.2 -15.5°
Maximum altitude 18:20:50 65° 96° (E) 672 3.4 -16.2°
Drops below altitude 10° 18:25:08 10° 15° (NNE) 1,968 5.9 -16.9°
Enters shadow 18:26:54 - 13° (NNE) 2,683 6.6 -17.2°
